STARLINK-34490, 64478

Orbit data source: Space-Track

STARLINK-34490, 64478 is a payload satellite owned by SpaceX/Seattle (US) in LEO that was launched on Mon, 23 Jun 2025 UTC via an FALCON 9 launch vehicle from the Air Force Eastern Test Range (AFETR). Payload-class satellites include a variety of spacecraft equipped with specific instruments for various scientific and technological missions. These include communications satellites like Starlink; space stations such as the ISS; scientific satellites like the Hubble; Earth observation satellites from companies like Planet Labs, Umbra, and HawkEye 360; GPS; miniature CubeSats for education and research; and military/defense satellites.

Loading next visibility...
Identifier
64478, 2025-133G
Orbit
LEO
Last TLE update
14 hours ago
Origin
Manufacturer
SpaceX/Seattle
Mission
Operational spacecraft
Bus & Motor
STARLINK V2MO, Unknown motor
Mass
575 kg wet, ~530 kg dry
Launch date (UTC)
2025-06-23 (1 week ago)
Launch vehicle
FALCON 9
Launch site
Air Force Eastern Test Range (AFETR)
Object type
Payload
Rocket body
Debris
Shape & HBR
Unknown
Radar Cross Section
RCS unknown

Expand to show TLE details & history

TLE from 14 hours ago
0 STARLINK-34490
1 64478U 25133G   25182.16668981 -.01106556  00000-0 -46500-2 0  9999
2 64478  53.1557 217.9712 0000944  87.3200  92.8200 15.87400989  2490
Epoch: 2025-07-01T04:00Z
TLE epoch observation values (Epoch: 2025-07-01T04:00:01.999Z)
Latitude
-0.204°
Longitude
58.64882°
Altitude
310.552 km
Speed
7.723 km/s
True Right ascension
02h 32m 29s
True Declination
0° 12' 10"
Sunlit
Object was in daylight at epoch
Visualization orbit readout
Latitude
-22.63537°
Longitude
73.70559°
Altitude
320.25 km
Speed
7.716 km/s
Apparent Right ascension
00h 09m 05s
Apparent Declination
-66° 12' 33"
Sunlit
Object is in daylight
Visualization observer readout
Local Sidereal Time
05:23:07
Azimuth
207.687° SW
Elevation
-31.702°
Doppler factor
1
Orbital elements
Apogee altitude
310.467 km
Perigee altitude
309.205 km
Semi-major axis
6,687.973 km
Eccentricity
0.00009
Inclination
53.1557°
RAAN
217.9712°
Arg. of periapsis
87.32°
True anomaly
Unknown
Mean anomaly
92.82°
Eccentric anomaly
Unknown
Mean motion
3.96827 °/min
Orbital period
90.72 mins
BSTAR
-0.00465
Loading maneuver chart data...
Loading SW <> Apogee altitude chart data...
Loading historical data...
Loading historical data...
Loading historical data...
Loading historical data...
Loading historical data...
Loading historical data...
Loading historical data...

STARLINK-34490 Visibility forecast

Observer location: undefined°, undefined°

Span
Click to sort rows by Start time (UTC) header in descending order
Start Az.
Max El. time (UTC)
Max El. Az.
Max El.
End time (UTC)
End Az.
4 mins2025-07-02 05:08:28.995Z235.54° WSW2025-07-02 05:10:28.995Z267.175° W41.776°2025-07-02 05:12:28.995Z43.999° NE
4 mins2025-07-02 11:29:28.995Z319.675° NNW2025-07-02 11:31:28.995Z11.283° NNE38.143°2025-07-02 11:33:28.995Z112.307° ESE
|